Flag for Japan Weather past 2 weeks in Kumamoto, Japan

Now
73 °F

Broken clouds.


Feels Like: 70 °F
Forecast: 69 / 85 °F
Wind: 1 mph from North

Location: Kumamoto Airport

Current Time: Aug 30, 2014 at 9:43:17 AM

Latest Report: Aug 30, 2014 at 9:00 AM


Visibility: N/A

Pressure: 29.92 "Hg

Humidity: 94%

Dew point: 72 °F

Location of KumamotoLocation

Historic Weather in Kumamoto — Graph

°F

Kumamoto temperature yesterday

Maximum temperature yesterday: 75 °F (at 11:00 AM)
Minimum temperature yesterday: 72 °F (at 7:00 AM)
Average temperature yesterday: 73 °F

Past Weeks' High & Low Weather Summary

 TemperatureHumidityPressure
High90 °F (Aug 21, 1:00 PM)100% (Aug 15, 9:00 AM)30.01 "Hg (Aug 15, 9:00 AM)
Low70 °F (Aug 30, 6:47 AM)59% (Aug 21, 1:00 PM)29.71 "Hg (Aug 15, 5:00 PM)
Average79 °F87%29.89 "Hg
* Reported Aug 15 8:00 AM — Aug 30 8:00 AM, Kumamoto, Weather by CustomWeather, © 2014

Note: Actual official high and low records may vary slightly from our data, if they occured in-between our weather recording intervals... More about our weather records

Advertising

Kumamoto weather history for previous 24 hours

 ConditionsComfort  
Time TempWeatherWind HumidityBarometerVisibility
8:00 AM
Aug 30
72 °FPartly sunny.1 mph100%29.92 "HgN/A
7:00 AM70 °FFog.No wind100%29.92 "Hg1 mi
6:47 AM70 °FFog.2 mph100%29.92 "Hg1 mi
9:00 PM
Aug 29
72 °FSprinkles. Partly cloudy.3 mph100%29.92 "Hg4 mi
8:00 PM72 °FSprinkles. Passing clouds.3 mph94%29.92 "Hg5 mi
7:00 PM72 °FSprinkles. Passing clouds.1 mph100%29.89 "HgN/A
6:00 PM72 °FPartly sunny.5 mph100%29.89 "HgN/A
5:00 PM75 °FBroken clouds.2 mph94%29.89 "HgN/A
4:00 PM73 °FPartly sunny.3 mph94%29.89 "HgN/A
3:00 PM72 °FRain showers. Broken clouds.6 mph100%29.89 "Hg4 mi
2:47 PM72 °FStrong thunderstorms. Fog.3 mph100%29.92 "Hg1 mi
2:03 PM72 °FStrong thunderstorms. Fog.15 mph100%29.89 "Hg1 mi
2:00 PM72 °FStrong thunderstorms. Fog.15 mph100%29.89 "Hg1 mi
1:00 PM75 °FRain showers. Fog.3 mph89%29.89 "Hg3 mi
12:00 PM75 °FLight rain. Partly sunny.6 mph89%29.92 "HgN/A
11:00 AM75 °FSprinkles. Broken clouds.2 mph89%29.95 "HgN/A
10:00 AM73 °FPartly sunny.5 mph94%29.95 "Hg5 mi
9:00 AM73 °FPartly sunny.2 mph94%29.95 "Hg4 mi
Weather by CustomWeather, © 2014

See weather overviewHow to use our weather pages